sat.trackr.live / text

‹ back to catalog

KUIPER-00132

NORAD 65763 · 2025-217B

PAYLOAD ACTIVE UNKNOWN

§ Identity

Operator
Country
US
Launch date
2025-09-25
Launch site
AFETR
Launch vehicle
Mass (kg)
RCS (m²)

External: N2YO · Heavens-Above · Gunter

§ Orbital elements

Epoch: 2026-09-20T21:46:30.916992Z

Period
93.54 min
Inclination
51.8517°
Eccentricity
0.0004794
Mean motion
15.39468460 rev/d
Perigee alt
444.4 km
Apogee alt
451.0 km
Semi-major
6,825.8 km
B*
4.0418e-4
RAAN
133.4655°
Arg perigee
301.4518°
Mean anomaly
58.6000°
Rev number
5,553

§ Raw data

KUIPER-001321 65763U 25217B   26263.90730228  .00015739  00000+0  40418-3 0  99982 65763  51.8517 133.4655 0004794 301.4518  58.6000 15.39468460 55532

JSON: /api/v1/satellites/65763 · /tle

For live sub-satellite position, see the globe view (requires WebGL).

§ Visibility from observer

Set your observer location to see the next 7 days of passes ≥ 10°. The values pass through the URL so the page stays shareable.

No JS? Fill the form by hand. The geolocation button needs JavaScript.